W9LRT-WX Weather Reports


time (UTC)temp
C
wind
direction
speed
KPH
gust
KPH
rain 1hr
cm
rain 24hr
cm
rain mn
cm
humidity
%
barometer
mb
20260503203509 9 181 14.5 32.2 0.00 0.00 0.00 82 1010.0
20260503202010 9 196 14.5 25.7 0.00 0.00 0.00 82 1010.1
20260503200510 9 0 14.5 33.8 0.00 0.00 0.00 82 1010.7
20260503195012 9 159 16.1 33.8 0.00 0.00 0.00 80 1011.4
20260503193509 10 0 17.7 33.8 0.00 0.00 0.00 78 1012.1
20260503192008 10 0 17.7 38.6 0.00 0.00 0.00 78 1012.4
20260503190509 10 249 20.9 48.3 0.00 0.00 0.00 74 1012.5
20260503185010 12 0 22.5 48.3 0.00 0.00 0.00 63 1012.4
20260503183508 13 292 19.3 48.3 0.00 0.00 0.00 59 1011.9
20260503182008 14 234 17.7 48.3 0.00 0.00 0.00 55 1011.7
20260503180508 14 0 20.9 48.3 0.00 0.00 0.00 54 1011.8
20260503175009 15 0 19.3 48.3 0.00 0.00 0.00 54 1011.6
20260503173508 15 0 17.7 48.3 0.00 0.00 0.00 52 1012.0
20260503172007 15 0 19.3 48.3 0.00 0.00 0.00 51 1012.2
20260503170504 15 0 16.1 48.3 0.00 0.00 0.00 53 1012.4
20260503150505 13 0 14.5 48.3 0.00 0.00 0.00 54 1013.8
20260503130504 9 233 12.9 24.1 0.00 0.00 0.00 60 1014.4
20260503110502 5 0 8.0 14.5 0.00 0.00 0.00 68 1014.1
20260503090503 5 0 4.8 12.9 0.00 0.00 0.00 70 1014.2
20260503080502 5 0 6.4 11.3 0.00 0.00 0.00 70 1014.3
20260503072001 5 0 6.4 11.3 0.00 0.00 0.00 69 1014.4
20260503070503 5 0 6.4 14.5 0.00 0.00 0.00 68 1014.5
20260503055002 5 184 0.0 0.0 0.00 0.00 0.00 69 1015.2
20260503053501 5 175 0.0 0.0 0.00 0.00 0.00 70 1015.3
20260503052000 5 175 0.0 0.0 0.00 0.00 0.00 70 1015.4
20260503050502 5 175 0.0 0.0 0.00 0.00 0.00 70 1015.5
20260503045002 5 175 0.0 0.0 0.00 0.00 0.00 71 1015.5
20260503043502 5 0 0.0 0.0 0.00 0.00 0.00 71 1015.5
20260503042002 5 185 0.0 0.0 0.00 0.00 0.00 72 1015.5
20260503040501 5 0 0.0 0.0 0.00 0.00 0.00 74 1015.7
20260503035000 5 0 0.0 0.0 0.00 0.00 0.00 74 1015.7
20260503033501 5 0 0.0 0.0 0.00 0.00 0.00 73 1015.7
20260503032004 5 0 0.0 0.0 0.00 0.00 0.00 70 1015.8
20260503030501 5 262 0.0 0.0 0.00 0.00 0.00 66 1015.9
20260503025001 5 262 0.0 0.0 0.00 0.00 0.00 65 1015.9
20260503023501 5 262 0.0 0.0 0.00 0.00 0.00 66 1015.8
20260503021959 6 0 0.0 0.0 0.00 0.00 0.00 65 1015.9
20260503020457 6 317 0.0 0.0 0.00 0.00 0.00 62 1015.8
20260503014958 6 317 0.0 0.0 0.00 0.00 0.00 62 1015.8
20260503013453 6 316 0.0 0.0 0.00 0.00 0.00 59 1015.6
20260503011955 7 319 0.0 0.0 0.00 0.00 0.00 56 1015.7
20260503010451 8 318 0.0 0.0 0.00 0.00 0.00 53 1015.7
20260503004951 8 0 0.0 0.0 0.00 0.00 0.00 49 1015.7
20260503003451 9 319 0.0 0.0 0.00 0.00 0.00 48 1015.7
20260503001950 10 318 1.6 9.7 0.00 0.00 0.00 47 1015.7
20260503000443 10 313 1.6 9.7 0.00 0.00 0.00 45 1015.7
20260502234943 10 335 4.8 29.0 0.00 0.00 0.00 42 1015.7
20260502233444 11 280 3.2 29.0 0.00 0.00 0.00 42 1015.8
20260502231942 11 315 4.8 29.0 0.00 0.00 0.00 41 1015.8
20260502230444 11 314 3.2 29.0 0.00 0.00 0.00 39 1015.9
20260502224943 11 0 6.4 29.0 0.00 0.00 0.00 40 1016.1
20260502223443 10 333 8.0 29.0 0.00 0.00 0.00 41 1016.1
20260502221943 11 0 8.0 29.0 0.00 0.00 0.00 39 1016.2
20260502220443 11 0 8.0 29.0 0.00 0.00 0.00 39 1016.1
20260502214943 11 322 8.0 29.0 0.00 0.00 0.00 41 1016.1
20260502213443 11 275 6.4 29.0 0.00 0.00 0.00 38 1016.0
20260502211944 11 336 8.0 29.0 0.00 0.00 0.00 40 1016.1
20260502210443 11 351 9.7 29.0 0.00 0.00 0.00 37 1016.1
20260502204943 10 0 9.7 29.0 0.00 0.00 0.00 40 1016.3